Location: Ruda Slaska
(50.2667°N, 18.7000°E)
Time: 02:52:50
(UTC+02:00)

ISS - Visible Passes

Search period start: 23 September 2018 00:00
Search period end: 03 October 2018 00:00
Orbit: 403 x 408 km, 51.6° (Epoch: 23 September)

Date Brightness Start Highest point End Pass type
(mag) Time Alt. Az. Time Alt. Az. Time Alt. Az.
23 Sep -2.0 19:36:33 10° S 19:38:40 16° SE 19:39:38 14° ESE visible
23 Sep -1.4 21:11:26 10° WSW 21:12:20 17° WSW 21:12:20 17° WSW visible
24 Sep -3.4 20:19:43 10° SW 20:22:52 44° SSE 20:22:54 44° SSE visible
25 Sep -2.8 19:28:11 10° SSW 19:31:05 29° SSE 19:33:18 14° E visible
25 Sep -2.2 21:04:04 10° WSW 21:06:00 32° WSW 21:06:00 32° WSW visible
26 Sep -3.9 20:12:11 10° WSW 20:15:28 73° SSE 20:16:15 48° E visible
26 Sep -0.5 21:48:46 10° W 21:48:56 11° W 21:48:56 11° W visible
27 Sep -3.5 19:20:22 10° SW 19:23:35 51° SSE 19:26:26 13° E visible
27 Sep -2.6 20:56:47 10° W 20:59:06 41° WNW 20:59:06 41° WNW visible
28 Sep -3.8 20:04:47 10° W 20:08:06 80° NNW 20:09:12 39° ENE visible
28 Sep -0.6 21:41:27 10° WNW 21:41:52 13° WNW 21:41:52 13° WNW visible
29 Sep -3.8 19:12:50 10° WSW 19:16:08 82° SSE 19:19:14 11° ENE visible
29 Sep -2.7 20:49:27 10° W 20:51:54 45° WNW 20:51:54 45° WNW visible
30 Sep -3.6 19:57:26 10° W 20:00:43 67° N 20:01:54 35° ENE visible
30 Sep -0.6 21:34:02 10° WNW 21:34:34 14° WNW 21:34:34 14° WNW visible
01 Oct -3.7 19:05:24 10° W 19:08:42 75° N 19:11:53 11° ENE visible
01 Oct -2.9 20:42:02 10° WNW 20:44:32 48° WNW 20:44:32 48° WNW visible
02 Oct -3.7 19:50:01 10° W 19:53:19 68° N 19:54:30 36° ENE visible
02 Oct -0.7 21:26:34 10° WNW 21:27:09 14° W 21:27:09 14° W visible
